Theta_e
347 342 334 340 334 332 329 331 336 338 339 340 341 340 339 338 337 335 333 330 330 329
347 342 337 338 337 333 332 332 335 338 339 341 340 340 339 337 337 335 334 333 331 330
346 342 340 343 335 336 338 336 335 337 338 339 339 339 338 338 337 335 335 334 330 329
343 339 340 342 339 335 339 338 335 336 337 337 336 338 338 338 334 332 334 332 329 328
343 341 341 346 340 338 341 337 335 335 335 336 334 336 334 333 331 331 331 330 330 328
347 348 346 346 340 338 336 337 336 334 333 332 332 333 333 333 332 329 331 331 331 329
348 347 344 339 338 339 335 336 334 334 332 332 332 333 333 332 330 330 331 332 331 330
347 341 335 334 334 334 333 335 335 333 331 331 331 331 331 332 331 331 331 332 331 329
340 337 332 332 332 332 332 332 332 331 331 329 330 318 318 328 330 331 331 330 330 330
338 334 333 331 329 328 328 329 332 332 332 330 331 309 312 317 331 331 331 331 329 327
332 335 334 333 332 327 327 331 332 332 333 332 332 307 308 313 332 331 331 329 329 327
327 330 334 332 334 332 329 329 334 334 333 333 330 304 306 319 331 328 327 327 327 326
323 328 329 333 331 331 331 331 332 334 334 327 322 301 304 319 324 325 324 326 325 313
320 322 328 330 331 331 330 330 331 331 333 328 316 306 301 305 323 323 323 321 321 305
Wind_Speed
20 12 10 7 8 7 10 10 10 8 8 7 7 6 6 3 3 4 2 2 3 3
16 20 24 30 23 12 8 9 12 10 9 7 7 6 6 4 5 5 3 3 1 3
18 16 16 14 18 15 9 12 14 12 10 10 7 6 6 4 4 5 3 3 3 2
16 14 9 10 13 15 11 16 16 13 10 9 11 7 6 5 7 5 5 2 4 4
14 15 13 13 15 17 13 16 17 17 14 10 9 8 8 7 7 6 6 5 5 5
22 16 16 15 14 13 14 15 15 15 18 14 10 10 9 7 7 8 7 6 6 4
18 16 12 14 17 14 15 14 16 18 17 20 18 12 12 12 8 8 7 6 4 3
15 16 15 15 13 14 17 17 15 16 16 15 16 15 16 13 10 9 7 7 6 6
7 14 17 16 12 15 14 14 16 14 12 14 13 18 22 19 13 10 8 7 6 5
15 14 14 15 15 15 13 12 12 12 12 14 14 12 17 15 11 12 9 7 6 5
3 10 12 15 16 15 13 13 13 13 15 13 12 14 16 14 10 7 8 7 7 5
10 4 11 11 13 12 13 13 13 15 15 15 10 12 16 15 9 8 6 5 6 6
9 8 2 11 11 10 9 11 11 14 15 14 10 5 14 12 8 7 6 6 5 10
9 8 9 4 9 12 11 12 12 12 13 13 14 10 10 5 6 6 6 4 4 6
Wind_Direction
177 154 104 291 241 194 186 177 160 170 164 160 155 152 143 146 193 133 185 89 359 330
182 160 179 185 208 192 168 166 165 164 166 153 167 158 159 190 195 165 161 172 225 291
183 188 186 169 181 180 178 161 162 165 171 159 159 165 167 196 167 168 217 181 165 283
186 202 194 142 174 166 187 149 156 164 169 173 163 168 173 204 156 188 204 155 197 196
201 197 200 162 187 170 162 147 161 171 162 176 175 173 174 203 169 181 188 208 242 247
199 192 193 176 169 171 154 155 176 181 159 161 180 186 183 186 184 186 187 204 203 229
184 184 159 168 163 167 172 175 185 179 173 166 172 182 193 194 188 178 189 189 192 223
150 141 151 157 173 169 171 185 192 208 189 178 177 178 185 188 183 179 175 179 179 211
61 151 159 160 176 181 191 203 201 216 191 188 199 190 175 175 178 169 176 182 190 207
167 177 157 165 179 187 200 199 210 215 204 211 209 175 178 173 171 167 175 176 178 210
39 188 173 179 187 192 198 206 215 213 217 212 205 183 183 168 158 166 154 173 186 192
346 354 179 193 198 197 202 215 212 215 212 209 192 170 166 163 158 156 165 184 198 194
347 331 279 198 196 206 192 212 219 211 204 199 148 150 165 164 161 164 179 191 199 209
353 334 4 285 190 201 205 204 222 219 202 154 148 161 154 111 172 181 181 184 184 87